ATLAS 5 CENTAUR DEB, 49358

Orbit data source: Space-Track

ATLAS 5 CENTAUR DEB, 49358 is space debris in HEO originally from a launch on Wed, 17 Oct 2018 UTC launched from the Air Force Eastern Test Range (AFETR). Debris objects in space refer to the collection of defunct objects orbiting the Earth. Examples of debris include non-operational satellites, rocket bodies, and fragments generated from explosions, collisions, or faulty payload assembly.

Loading next visibility...
Identifier
49358, 2018-079FK
Orbit
HEO
Country
Flag of USUS
Related business
Flag of USUnited Launch Alliance/Lockheed Martin (US)
Manufacturer
ULA Decatur
Mission
Spacecraft
Bus & Motor
Unknown
Mass
Unknown
Launch date (UTC)
2018-10-17 (8 years ago)
Launch vehicle
Unknown
Launch site
Air Force Eastern Test Range (AFETR)
Object type
Payload
Rocket body
Debris
Shape & HBR
Unknown shape, 1.1 m
Radar Cross Section
Medium (>0.1 m² and <1 m²)

Expand to show TLE details & history
Last TLE update: 1 week ago

TLE from 1 week ago
0 ATLAS 5 CENTAUR DEB
1 49358U 18079FK  26166.71487061 -.00000103  00000-0  00000-0 0  9994
2 49358  13.3718  26.1092 4781483 335.8865   7.6773  1.83760316 32197
Epoch: 2026-06-15T17:09Z
TLE epoch observation values (Epoch: 2026-06-15T17:09:24.820Z)
Latitude
0.00014°
Longitude
-135.26518°
Altitude
8,776.006 km
Speed
6.201 km/s
True Right ascension
01h 44m 20s
True Declination
0° 00' 01"
Sunlit
Object was in daylight at epoch
Visualization orbit readout
Latitude
Unknown
Longitude
Unknown
Altitude
Unknown
Speed
Unknown
Apparent Right ascension
Unknown
Apparent Declination
Unknown
Sunlit
N/A
Visualization observer readout
Local Sidereal Time
21:38:56
Azimuth
Unknown
Elevation
Unknown
Doppler factor
Unknown
Orbital elements
Apogee altitude
35,243.426 km
Perigee altitude
8,316.115 km
Semi-major axis
28,157.908 km
Eccentricity
0.47815
Inclination
13.3718°
RAAN
26.1092°
Arg. of periapsis
335.8865°
True anomaly
24.2814°
Mean anomaly
7.6773°
Eccentric anomaly
14.56829°
Mean motion
0.45935 °/min
Orbital period
783.72 mins
BSTAR
0
Loading maneuver chart data...
Computing Atmospheric mass density...

Documentation

Showing up to 5 results
|